Regional Weather Roundup
Issued by NWS Midland/Odessa, TX

Skip options and go directly to product.
Home | Oldest Version | Previous Version | Current Version | All | Text Only | Save Text | Print | Product List | Glossary On

Skip product version selection by date and time.   
144
ASUS44 KMAF 300410
RWRMAF
MIDLAND AREA WEATHER ROUNDUP
NATIONAL WEATHER SERVICE MIDLAND TX
1100 PM CDT MON AUG 29 2016

...IN SOUTHWEST TEXAS AND SOUTHEAST NEW MEXICO...

CITY           SKY/WX    TMP DP  RH WIND       PRES   REMARKS
ALPINE         MOCLDY    65  62  90 N5        30.27S
ANDREWS        FAIR      69  69 100 NE8       30.19R
ARTESIA        MOCLDY    70  68  94 N6        30.23R
BIG SPRING     CLOUDY    75  67  76 N10       30.16S
CARLSBAD       MOCLDY    71  63  75 NE7       30.19R
DRYDEN           N/A     73  69  87 N8        30.07R
FORT STOCKTON  MOCLDY    69  68  96 NE3       30.15R
GUAD PASS      NOT AVBL
HOBBS          PTCLDY    66  66 100 NE9       30.23S
MARFA          CLOUDY   N/A N/A N/A N3        30.25R
MIDLAND AIRPK  CLOUDY    72  68  89 N6        30.16R
MIDLAND INTL   MOCLDY    71  68  90 N10       30.15R
ODESSA         CLOUDY    71  67  87 N10       30.16R
PECOS          CLOUDY    71  68  92 NE5       30.15R
PRESIDIO       FAIR      76  65  68 NE5       30.09S
SEMINOLE       MOCLDY    67  65  96 N9        30.21S
SNYDER           N/A     78  65  64 E9        30.16R
WINK           CLOUDY    74  66  76 NE9       30.14R
$$
...OTHER STATIONS IN TEXAS...

CITY           SKY/WX    TMP DP  RH WIND       PRES   REMARKS
ABILENE        PTCLDY    76  70  82 E5        30.12R
AMARILLO       LGT RAIN  66  64  93 NE8       30.27R
AUSTIN         PTCLDY    76  73  91 NE8       30.00S
BROWNSVILLE    CLEAR     80  76  87 CALM      29.89R
CORPUS CHRISTI PTCLDY    81  77  88 NE9       29.90R
DALLAS FTW     MOCLDY    80  73  79 CALM      30.05R
DEL RIO        PTCLDY    75  73  93 N3        30.00R
EL PASO        MOCLDY    76  57  51 NE12      30.15R
HOUSTON INT    MOCLDY    76  72  87 NE7       29.98R
LUBBOCK        LGT RAIN  67  65  93 NE7       30.21R
SAN ANGELO     CLOUDY    78  66  66 E8        30.09R
SAN ANTONIO    CLOUDY    75  72  90 NE8       30.00R
WACO           CLOUDY    76  74  93 N5        30.05R
WICHITA FALLS  NOT AVBL
$$
...OTHER LOCATIONS IN NEW MEXICO...

CITY           SKY/WX    TMP DP  RH WIND       PRES   REMARKS
ALAMAGORDO     CLEAR     68  55  64 CALM      30.17R
ALBUQUERQUE    PTCLDY    66  49  54 E22G31    30.29R
CANNON AFB     DRIZZLE   65  65 100 E5        30.28R
CLOVIS         CLOUDY    64  61  88 E5        30.28R
HOLLOMAN AFB   CLEAR     74  54  49 NW7       30.15R
ROSWELL        MOCLDY    70  61  73 N6        30.24R
RUIDOSO          N/A     57  55  94 SE8       30.42R
SANTA FE       MOCLDY    59  49  69 S10       30.36R
TRUTH OR CONSE PTCLDY    73  53  49 CALM      30.20R
TUCUMCARI      MOCLDY    65  59  81 N7        30.27R
$$

USA.gov is the U.S. government's official web portal to all federal, state and local government web resources and services.